This demonstration page uses our WeatherBlox Daily Observations layout. Learn more.

Left ArrowRight Arrow

Hourly Observations for May 2, 2017

Temp ( °F °C ) Dew Point ( °F °C ) Humidity (%) Winds ( mph kmh ) Pressure ( in mb ) Visibility ( mi km ) Precip ( " mm )
12:15 am 00:15 Cloudy 72 22 70 21 94 94 SW 15 24 29.65 1004 10 16 N/A
12:35 am 00:35 Mostly Cloudy 72 22 68 20 88 88 SSW 16 26 29.65 1004 10 16 N/A
12:55 am 00:55 Mostly Cloudy 72 22 68 20 88 88 SW 15 24 29.65 1004 10 16 N/A
1:15 am 01:15 Cloudy 72 22 68 20 88 88 SSW 12 19 29.65 1004 10 16 N/A
1:35 am 01:35 Cloudy 72 22 68 20 88 88 SSW 15 24 29.62 1003 10 16 N/A
1:55 am 01:55 Mostly Cloudy 72 22 68 20 88 88 SSW 15 24 29.62 1003 10 16 N/A
2:15 am 02:15 Mostly Cloudy 72 22 68 20 88 88 SSW 15 24 29.62 1003 10 16 N/A
2:35 am 02:35 Partly Cloudy 72 22 68 20 88 88 SSW 9 15 29.62 1003 10 16 N/A
2:55 am 02:55 Partly Cloudy 70 21 68 20 94 94 SW 8 13 29.62 1003 10 16 N/A
3:15 am 03:15 Mostly Cloudy 70 21 68 20 94 94 W 8 13 29.62 1003 10 16 N/A
3:35 am 03:35 Cloudy 70 21 66 19 88 88 W 9 15 29.62 1003 10 16 N/A
3:55 am 03:55 Cloudy 70 21 59 15 69 69 WNW 10 17 29.62 1003 10 16 N/A
4:15 am 04:15 Cloudy 68 20 57 14 69 69 W 6 9 29.65 1004 10 16 N/A
4:35 am 04:35 Cloudy 66 19 55 13 68 68 WNW 7 11 29.65 1004 10 16 N/A
4:55 am 04:55 Mostly Cloudy 64 18 55 13 73 73 WNW 8 13 29.65 1004 10 16 N/A
5:15 am 05:15 Clear 64 18 55 13 73 73 NW 8 13 29.65 1004 10 16 N/A
5:35 am 05:35 Clear 63 17 54 12 73 73 NW 5 7 29.65 1004 10 16 N/A
5:55 am 05:55 Clear 61 16 54 12 77 77 WNW 3 6 29.68 1005 10 16 N/A
6:15 am 06:15 Sunny 61 16 54 12 77 77 WNW 3 6 29.68 1005 10 16 N/A
6:35 am 06:35 Sunny 61 16 54 12 77 77 WNW 3 6 29.68 1005 10 16 N/A
6:55 am 06:55 Sunny 61 16 55 13 83 83 NW 6 9 29.68 1005 10 16 N/A
7:15 am 07:15 Sunny 63 17 55 13 77 77 NW 6 9 29.68 1005 10 16 N/A
7:35 am 07:35 Sunny 64 18 55 13 73 73 NW 7 11 29.71 1006 10 16 N/A
7:55 am 07:55 Sunny 64 18 55 13 73 73 NW 5 7 29.71 1006 10 16 N/A
8:15 am 08:15 Partly Cloudy 66 19 55 13 68 68 WNW 6 9 29.71 1006 10 16 N/A
8:35 am 08:35 Partly Cloudy 68 20 55 13 64 64 NNW 9 15 29.71 1006 10 16 N/A
8:55 am 08:55 Mostly Cloudy 68 20 55 13 64 64 NW 14 22 29.71 1006 10 16 N/A
9:15 am 09:15 Mostly Cloudy 64 18 54 12 68 68 NNW 12 19 29.71 1006 10 16 N/A
9:35 am 09:35 Partly Cloudy 66 19 54 12 64 64 WNW 14 22 29.71 1006 10 16 N/A
9:55 am 09:55 Mostly Cloudy 68 20 54 12 60 60 NW 9 15 29.74 1007 10 16 N/A
10:15 am 10:15 Cloudy 66 19 50 10 56 56 W 10 17 29.74 1007 10 16 N/A
10:35 am 10:35 Mostly Cloudy 68 20 46 8 46 46 W 18 30 29.74 1007 10 16 N/A
10:55 am 10:55 Partly Cloudy 70 21 48 9 46 46 W 16 26 29.74 1007 10 16 N/A
11:15 am 11:15 Sunny 70 21 45 7 40 40 W 20 31 29.74 1007 10 16 N/A
11:35 am 11:35 Sunny 70 21 46 8 43 43 WNW 16 26 29.74 1007 10 16 N/A
11:55 am 11:55 Sunny 70 21 46 8 43 43 W 14 22 29.74 1007 10 16 N/A
12:15 pm 12:15 Sunny 72 22 45 7 38 38 W 16 26 29.74 1007 10 16 N/A
12:35 pm 12:35 Sunny 72 22 45 7 38 38 WNW 14 22 29.74 1007 10 16 N/A
12:55 pm 12:55 Sunny 72 22 43 6 36 36 W 14 22 29.74 1007 10 16 N/A
1:15 pm 13:15 Sunny 72 22 45 7 38 38 W 13 20 29.74 1007 10 16 N/A
1:35 pm 13:35 Sunny 73 23 43 6 33 33 W 12 19 29.74 1007 10 16 N/A
1:55 pm 13:55 Partly Cloudy 73 23 45 7 36 36 W 15 24 29.71 1006 10 16 N/A
2:15 pm 14:15 Mostly Cloudy 73 23 45 7 36 36 SW 9 15 29.71 1006 10 16 N/A
2:35 pm 14:35 Mostly Cloudy 73 23 45 7 36 36 WSW 14 22 29.71 1006 10 16 N/A
2:55 pm 14:55 Mostly Cloudy 73 23 45 7 36 36 SW 8 13 29.71 1006 10 16 N/A
3:15 pm 15:15 Mostly Cloudy 73 23 45 7 36 36 SW 9 15 29.71 1006 10 16 N/A
3:35 pm 15:35 Mostly Cloudy 77 25 43 6 30 30 W 18 30 29.71 1006 10 16 N/A
3:55 pm 15:55 Partly Cloudy 77 25 43 6 30 30 W 18 30 29.71 1006 10 16 N/A
4:15 pm 16:15 Partly Cloudy 77 25 43 6 30 30 WNW 22 35 29.71 1006 10 16 N/A
4:35 pm 16:35 Partly Cloudy 75 24 43 6 31 31 W 26 43 29.71 1006 10 16 N/A
4:55 pm 16:55 Mostly Cloudy 73 23 43 6 33 33 W 16 26 29.74 1007 10 16 N/A
5:15 pm 17:15 Partly Cloudy 73 23 43 6 33 33 WNW 16 26 29.74 1007 10 16 N/A
5:35 pm 17:35 Mostly Cloudy 72 22 43 6 36 36 WNW 15 24 29.74 1007 10 16 N/A
5:55 pm 17:55 Mostly Cloudy 73 23 43 6 33 33 WNW 16 26 29.74 1007 10 16 N/A
6:15 pm 18:15 Partly Cloudy 73 23 41 5 31 31 WNW 16 26 29.77 1008 10 16 N/A
6:35 pm 18:35 Partly Cloudy 73 23 41 5 31 31 WNW 21 33 29.77 1008 10 16 N/A
6:55 pm 18:55 Partly Cloudy 72 22 41 5 33 33 WNW 17 28 29.77 1008 10 16 N/A
7:15 pm 19:15 Mostly Cloudy 72 22 41 5 33 33 WNW 17 28 29.77 1008 10 16 N/A
7:35 pm 19:35 Cloudy 70 21 41 5 35 35 WNW 9 15 29.80 1009 10 16 N/A
7:55 pm 19:55 Mostly Cloudy 70 21 39 4 33 33 WNW 14 22 29.80 1009 10 16 N/A
8:15 pm 20:15 Mostly Cloudy 68 20 39 4 35 35 WNW 13 20 29.80 1009 10 16 N/A
8:35 pm 20:35 Mostly Cloudy 68 20 39 4 35 35 WNW 10 17 29.80 1009 10 16 N/A
8:55 pm 20:55 Mostly Cloudy 68 20 39 4 35 35 WNW 10 17 29.83 1010 10 16 N/A
9:15 pm 21:15 Cloudy 68 20 39 4 35 35 WNW 8 13 29.83 1010 10 16 N/A
9:35 pm 21:35 Cloudy 66 19 39 4 37 37 WNW 7 11 29.83 1010 10 16 N/A
9:55 pm 21:55 Cloudy 64 18 41 5 43 43 WNW 6 9 29.83 1010 10 16 N/A
10:15 pm 22:15 Mostly Cloudy 64 18 41 5 43 43 W 3 6 29.83 1010 10 16 N/A
10:35 pm 22:35 Mostly Cloudy 64 18 41 5 43 43 SW 3 6 29.85 1011 10 16 N/A
10:55 pm 22:55 Mostly Cloudy 63 17 39 4 42 42 SW 3 6 29.85 1011 10 16 N/A
11:15 pm 23:15 Cloudy 61 16 43 6 52 52 SW 3 6 29.85 1011 10 16 N/A
11:35 pm 23:35 Mostly Cloudy 59 15 46 8 63 63 WSW 3 6 29.85 1011 10 16 N/A
11:55 pm 23:55 Partly Cloudy 57 14 46 8 67 67 W 3 6 29.85 1011 10 16 N/A

Powered by AerisWeather